Preview of NWS' New Version of Forecast
This preview is not operational and should not be used for support decisions.
Latest weather observations around

Sandberg (KSDB)

Using English Units (Switch to International System of Units)
Date/ Time (PDT) Wind (mph) Vis. (mi) Weather Sky Cond. Temp (°F) Rel. Humidity Wind Chill (°F) Heat Index (°F) Pressure Precip. (in)
Air Dwpt 6 hour Altimeter (inHg) Sea level (inHg) 1 hr 3 hr 6 hr
Max Min
Sep 16 06:53 S 13 10 Clear CLR 61 37     41%       29.91      
Sep 16 05:53 S 10 10 Clear   61 40     46%       29.89      
Sep 16 04:53   10 Clear   61        %       29.88      
Sep 16 03:53 S 11 10 Clear   61 32     33%       29.87      
Sep 16 02:53 WSW 13 10 Clear   62 33     34%       29.88      
Sep 16 01:53 SSW 7 10 Clear   63 41     45%       29.89      
Sep 16 00:53 S 8 10 Clear   63 41     45%       29.89      
Sep 15 23:53 SSW 8 10 Clear   64 42     45%       29.9      
Sep 15 22:53 SSW 7 10 Clear   64 41     43%       29.89      
Sep 15 21:53 S 9 10 Clear CLR 65 42     43%       29.9      
Sep 15 20:53 S 11 10 Clear CLR 67 42     40%       29.91      
Sep 15 19:53 S 14 10 Clear CLR 68 44     42%       29.9      
Sep 15 18:53 SSE 16 10 Clear CLR 70 43     38%       29.89      
Sep 15 17:53 SSE 14 10 Clear CLR 75 44     33%   74   29.88      
Sep 15 16:53   10 Clear CLR 79 42     27%   78   29.87      
Sep 15 15:53 S 15 10 Clear CLR 81 36     20%   80   29.87      
Sep 15 14:53 SSE 11 10 Clear CLR 82 32     16%   80   29.87      
Sep 15 13:53 SSE 15 10 Clear CLR 82 32     16%   80   29.89      
Sep 15 12:53   10 Clear CLR 82 31     16%   80   29.9      
Sep 15 11:53   10 Clear CLR 80 30     16%   79   29.91      
Sep 15 10:53 S 13 10 Clear CLR 77 27     16%   75   29.92      
Sep 15 09:53   10 Clear CLR 76 29     18%   74   29.93      
Sep 15 08:53 S 10 10 Clear CLR 73 33     23%   71   29.93      
Sep 15 07:53 S 7 10 Clear CLR 68 33     27%       29.93      
Sep 15 06:53 S 7 10 Clear CLR 70 32     24%       29.92      
Sep 15 05:53 S 7 10 Clear CLR 68 33     27%       29.9      
Sep 15 04:53 S 7 10 Clear CLR 68 33     27%       29.89      
Sep 15 03:53 S 7 10 Clear CLR 69 31     24%       29.9      
Sep 15 02:53 S 11 10 Clear CLR 72 30     21%   70   29.9      
Sep 15 01:53 S 10 10 Clear CLR 73 31     21%   71   29.92      
Sep 15 00:53 SSW 6 10 Clear CLR 74 31     20%   72   29.93      
Sep 14 23:53 SW 6 10 Clear CLR 74 31     20%   72   29.94      
Sep 14 22:53 SW 3 10 Clear CLR 76 31     19%   74   29.94      
Sep 14 21:53 SSW 3 10 Clear CLR 77 31     18%   75   29.95      
Sep 14 20:53 S 8 10 Clear CLR 76 32     20%   74   29.96      
Sep 14 19:53 S 9 10 Clear CLR 77 33     20%   75   29.95      
Sep 14 18:53 S 8 10 Clear CLR 80 30     16%   79   29.94      
Sep 14 17:53 7 10 Clear CLR 85 27     12%   82   29.93      
Sep 14 16:53 SSW 10 10 Clear CLR 88        %       29.94      
Sep 14 15:53 SSW 10 10 Clear CLR 88 25     10%   84   29.94      
Sep 14 14:57 S 11 10 Clear CLR 90 24     9%   85          
Sep 14 14:53 SSW 15 10 Clear CLR 90 24     9%   85   29.95      
Sep 14 13:53 SSW 13 10 Clear CLR 90 24     9%   85   29.96      
Sep 14 12:53 S 11 10 Clear CLR 90 25     10%   85   29.98      
Sep 14 11:53 7 10 Clear CLR 87 25     10%   83   30      
Sep 14 10:53 6 10 Clear CLR 87 26     11%   83   30.01      
Sep 14 09:53 SE 8 10 Clear CLR 84 26     12%   81   30.02      
Notice The following observation data may not be complete
Sep 14 08:53 NW 6 10 Clear CLR   27      %       30.01      
Notice The following observation data may not be complete
Sep 14 07:53 NW 9 10 Clear CLR   26      %       30.01      
Sep 14 06:53 NW 11 10 Clear CLR 72 26     18%   70   30      
Sep 14 05:53 NW 10 10 Clear CLR 72 27     19%   70   29.99      
Sep 14 04:53 NW 11 10 Clear CLR 71 27     19%   69   29.98      
Sep 14 03:53 NW 13 10 Clear CLR 71 26     19%   69   29.98      
Sep 14 02:53 NW 13 10 Clear CLR 71 24     17%   69   29.98      
Sep 14 01:53 NW 13 10 Clear CLR 72 25     17%   70   29.99      
Sep 14 00:53 NW 14 10 Clear CLR 73 25     17%   71   30      
Sep 13 23:53 NW 14 10 Clear CLR 74 28     18%   72   30      
Sep 13 22:53 NW 13 10 Clear CLR 72 36     27%   70   30.01      
Sep 13 21:53 NNW 16 10 Clear CLR 72 41     33%   70   30      
Sep 13 20:53 N 6 10 Clear CLR 74 33     22%   72   30.01      
Sep 13 19:53 NNW 15 10 Clear CLR 74 34     23%   72   30      
Sep 13 18:53 NNW 14 10 Clear   75 33     22%   73   29.99      
Sep 13 17:53 NNW 16 10 Clear CLR 80        %       29.98      
Sep 13 16:53 NNW 14 10 Clear CLR 86 35     16%   83   29.97      
Notice The following observation data may not be complete
Sep 13 15:53 NE 9 10 Clear CLR          %       29.97      
Sep 13 14:53 NE 9 10 Clear CLR 88        %       29.99      
Sep 13 13:53 ENE 11 10 Clear CLR 88 19     8%   83   30.01      
Sep 13 12:53 5 10 Clear CLR 85 21     9%   81   30.04      
Sep 13 11:53 ENE 11 10 Clear CLR 85 22     10%   81   30.05      
Sep 13 10:53 ENE 10 10 Clear CLR 84 22     10%   81   30.06      
Sep 13 09:53 7 10 Clear CLR 83 26     12%   80   30.05      
Sep 13 08:53 3 10 Clear CLR 76 28     17%   74   30.05      
Notice The following observation data may not be complete
Sep 13 07:53 Calm 10 Clear CLR   36      %       30.05      
Sep 13 06:53 Calm 10 Clear CLR 69 36     30%       30.04      
May 14 17:53   10 Clear CLR 56 46     69%       29.92      
May 14 14:53   10 Clear CLR 64 47     54%       29.92      
May 14 05:53 NNW 11 10 Clear CLR 46 41     82% 41     29.9      
May 14 03:27 SW 7 10 Partly Cloudy SCT001 43 43     100% 39            
May 13 18:53 WSW 5 10 Clear CLR 55 46     72%       29.93      
May 13 09:06 S 10 10 Mostly Cloudy BKN002 45 44     97% 40            
May 12 18:44 SSW 16 0.25 Fog VV002 46 46     100% 39            
May 12 17:53 S 18 6 Fog/Mist OVC002 47 46     97% 40     29.9      
May 12 17:11 SSW 13 2 Fog/Mist OVC002 47 46     97% 41            
May 12 15:53   1 Fog/Mist OVC002 49 47     93%       29.89      
May 12 15:39   1.5 Fog/Mist BKN002 OVC006 50 47     89%              
May 12 14:02 S 15 10 Mostly Cloudy BKN008 52 46     80%              
May 12 06:53 SSW 14 0.25 Fog VV001 43 43     100% 36     29.87      
May 12 01:53 SSW 11 0.25 Fog VV001 44 44     100% 38     29.83      
May 12 00:53 SSW 13 0.25 Fog VV001 45 45     100% 39     29.83      
May 11 22:53 SW 14 0.25 Fog VV001 45 45     100% 39     29.81 0   0
May 11 20:53   0.25 Light Rain and Fog VV001 46 46     100%       29.75 0    
May 11 19:53 SSW 15 0.25 Light Rain and Fog VV001 46 46     100% 40     29.74 0 0  
Notice The following observation data may not be complete
May 11 16:53 S 21 0.25 Light Rain and Fog VV001   48      %       29.73 0   0
Notice The following observation data may not be complete
May 11 14:53 S 9 0.25 Light Rain and Fog VV001   48      %       29.76 0    
Jun 11 21:53 W 5 7 Mostly Cloudy FEW002 BKN041 47 45     93% 45     29.92      
Jun 11 16:19 N 13 10 Cloudy SCT013 OVC019 53 42     66%              
Jun 11 11:04 SSW 11 10 Cloudy BKN010 OVC015 53 46     77%              
Jun 11 06:53   10 Clear CLR 46 39     76%       29.81      
Jun 10 22:53   10 Clear CLR 54 42     64%       29.82      
Jun 10 16:53 SW 9 10 Partly Cloudy FEW018 FEW023 SCT030 66 46     48%       29.81      
Jun 10 10:53 NNW 17 10 Clear CLR 61 44     54%       29.83      
Jun 10 02:53 N 16 10 Mostly Cloudy BKN005 54 51     90%       29.81      
Jun 09 22:53   10 Clear CLR 59 47     64%       29.86      
Jun 09 11:53   10 Mostly Clear FEW033 72 50     46%   71   29.89      
Jun 08 09:53 N 11 10 Clear CLR 69 41     36%       29.95      
Jun 08 05:53 NNW 15 10 Clear   57 41     55%       29.92      
Jun 08 01:53   10 Clear CLR 61 42     50%       29.89      
Jun 07 06:53 NW 8 10 Clear CLR 69 33     26%       29.85      
Jun 06 05:53 NNW 16 10 Clear CLR 65 35     33%       29.87